Погода в Гончаровке

Россия / Приморский край     45°55′42″N   134°24′00″E
темп.,
°C
ветер,
м/с
пор.,
м/с
влажн.,
%
обл.,
%
осадки,
мм/ч
давл.,
гПа
погр.,
м
27 июня, пн
пн2701:00+15сз129398 0.0 100633
04:00+13сз119897 0.0 100815
07:00+14ссв019289 0.0 1009109
10:00+20зюз117038 0.0 1009696
13:00+24зсз22540 0.0 10081157
16:00+26з22491 0.0 10061492
19:00+24зюз12725 0.0 1006163
22:00+18всв1188100 0.0 100611
28 июня, вт
вт2801:00+16в1189100 0.0 100613
04:00+15в2292100 0.0 100436
07:00+16всв2585100 0.0 1003141
10:00+21всв3670100 0.0 1001337
13:00+24в3766100 0.0 999694
16:00+19вюв41093100 0.8 998546
19:00+17вюв31198100 4.6 998508
22:00+17в1499100 7.1 998130
29 июня, ср
ср2901:00+17с249895 0.0 999111
04:00+15с11970 0.0 100014
07:00+17вюв01974 0.0 100361
10:00+23в12670 0.0 1004578
13:00+27зсз22460 0.0 10041498
16:00+28з23450 0.0 10041867
19:00+25зюз25695 0.0 1005176
22:00+20зюз118354 0.0 100711
30 июня, чт
чт3001:00+18юз2796100 0.0 1009168
04:00+16юз1198100 0.0 101012
07:00+18юв1293100 0.0 1012107
10:00+24вюв0168100 0.0 1011563
13:00+29всв125290 0.0 10101237
16:00+30ссв224499 0.0 10091654
19:00+23зюз3877100 0.1 1010226
22:00+20зюз3794100 0.3 1012201
1 июля, пт
пт101:00+17ссз2298100 1.1 101347
04:00+17в3895100 4.8 1013225
07:00+16всв2797100 1.1 1013226
10:00+19юв2492100 1.5 1013252
13:00+20вюв1286100 0.3 1012250
16:00+18юв1189100 0.3 101142
19:00+19в118998 0.0 101028
22:00+19св0089100 0.1 100911